Location: Peebles
(55.6412°N, 3.1714°W)
Time: 08:49:14
(UTC+01:00)

USA 276 - Pass Details

Date: 26 September 2021
Orbit: 377 x 389 km, 50.0° (Epoch: 01 October)

Event Time Altitude Azimuth Distance (km) Brightness Sun altitude
Rises 20:13:56 0° 256° (WSW) 2,249 7.2 -11.1°
Reaches altitude 10° 20:16:08 10° 244° (WSW) 1,399 5.7 -11.4°
Maximum altitude 20:18:54 29° 182° (S) 741 3.4 -11.8°
Enters shadow 20:20:31 18° 135° (SE) 1,021 3.7 -12.0°
